When you browse on this site, cookies collect data to enhance your experience and personalize the content and advertising you see.
Visit our Privacy Policy to learn more. By continuing to use the site, you agree to this use of cookies and data.
  • In Portugal
  • List of Countries
  • For 7 days
  • Water Temperature
  • Satellite Maps
  • Weather Map
  • Weather Widgets
  • user-avatar
    Login

    Hourly Weather Shishkeevo

    Today, 24 June, Monday

    Time Temperature Precipitation Wind Pressure Humidity
    00:00 +21°C° 0 mm 1 mps 744 mmHg 89%
    01:00 +21°C° 0 mm 1 mps 744 mmHg 91%
    02:00 +20°C° 0 mm 1 mps 744 mmHg 93%
    03:00 +19°C° 0 mm 2 mps 744 mmHg 93%
    04:00 +19°C° 0.3 mm 2 mps 744 mmHg 91%
    05:00 +19°C° 0.3 mm 2 mps 744 mmHg 90%
    06:00 +19°C° 0.3 mm 2 mps 744 mmHg 89%
    07:00 +20°C° 0.1 mm 2 mps 744 mmHg 84%
    08:00 +21°C° 0.1 mm 3 mps 745 mmHg 80%
    09:00 +22°C° 0 mm 3 mps 745 mmHg 76%
    10:00 +24°C° 0.2 mm 3 mps 745 mmHg 74%
    11:00 +24°C° 0.2 mm 3 mps 745 mmHg 72%
    12:00 +25°C° 0.2 mm 3 mps 745 mmHg 71%
    13:00 +24°C° 0.4 mm 3 mps 745 mmHg 72%
    14:00 +24°C° 0.4 mm 3 mps 745 mmHg 74%
    15:00 +24°C° 0 mm 3 mps 745 mmHg 86%
    16:00 +22°C° 0.1 mm 3 mps 745 mmHg 82%
    17:00 +22°C° 0.1 mm 3 mps 744 mmHg 79%
    18:00 +22°C° 0.1 mm 4 mps 744 mmHg 76%
    19:00 +21°C° 0 mm 3 mps 745 mmHg 77%
    20:00 +19°C° 0 mm 2 mps 745 mmHg 78%
    21:00 +18°C° 0 mm 2 mps 745 mmHg 79%
    22:00 +17°C° 0 mm 2 mps 745 mmHg 80%
    23:00 +16°C° 0 mm 3 mps 745 mmHg 80%

    Tomorrow, 25 June, Tuesday

    Time Temperature Precipitation Wind Pressure Humidity
    00:00 +14°C° 0 mm 3 mps 745 mmHg 80%
    01:00 +14°C° 0 mm 3 mps 745 mmHg 79%
    02:00 +13°C° 0 mm 3 mps 746 mmHg 78%
    03:00 +12°C° 0 mm 3 mps 746 mmHg 77%
    04:00 +13°C° 0 mm 3 mps 746 mmHg 76%
    05:00 +13°C° 0 mm 4 mps 746 mmHg 76%
    06:00 +14°C° 0 mm 4 mps 746 mmHg 75%
    07:00 +15°C° 0 mm 4 mps 747 mmHg 72%
    08:00 +16°C° 0 mm 5 mps 747 mmHg 69%
    09:00 +19°C° 0 mm 5 mps 748 mmHg 66%
    10:00 +20°C° 0 mm 5 mps 748 mmHg 62%
    11:00 +20°C° 0 mm 5 mps 748 mmHg 58%
    12:00 +21°C° 0 mm 4 mps 748 mmHg 54%
    13:00 +21°C° 0 mm 4 mps 748 mmHg 55%
    14:00 +21°C° 0 mm 4 mps 748 mmHg 55%
    15:00 +21°C° 0 mm 4 mps 748 mmHg 55%
    16:00 +21°C° 0 mm 4 mps 748 mmHg 59%
    17:00 +20°C° 0 mm 4 mps 748 mmHg 63%
    18:00 +20°C° 0 mm 3 mps 747 mmHg 67%
    19:00 +18°C° 0 mm 3 mps 748 mmHg 69%
    20:00 +17°C° 0 mm 3 mps 748 mmHg 72%
    21:00 +14°C° 0 mm 3 mps 748 mmHg 74%
    22:00 +13°C° 0 mm 3 mps 748 mmHg 77%
    23:00 +12°C° 0 mm 3 mps 748 mmHg 80%

    Day after tomorrow, 26 June, Wednesday

    Time Temperature Precipitation Wind Pressure Humidity
    00:00 +12°C° 0 mm 2 mps 748 mmHg 84%
    01:00 +11°C° 0 mm 3 mps 748 mmHg 85%
    02:00 +10°C° 0 mm 3 mps 748 mmHg 86%
    03:00 +10°C° 0 mm 3 mps 748 mmHg 87%
    04:00 +11°C° 0 mm 3 mps 748 mmHg 85%
    05:00 +11°C° 0 mm 3 mps 748 mmHg 82%
    06:00 +12°C° 0 mm 3 mps 748 mmHg 80%
    07:00 +13°C° 0 mm 3 mps 748 mmHg 74%
    08:00 +16°C° 0 mm 3 mps 748 mmHg 68%
    09:00 +17°C° 0 mm 3 mps 748 mmHg 63%
    10:00 +18°C° 0 mm 3 mps 748 mmHg 59%
    11:00 +19°C° 0 mm 3 mps 748 mmHg 55%
    12:00 +19°C° 0 mm 3 mps 748 mmHg 51%
    13:00 +20°C° 0 mm 3 mps 747 mmHg 51%
    14:00 +20°C° 0 mm 3 mps 747 mmHg 51%
    15:00 +20°C° 0 mm 3 mps 747 mmHg 51%
    16:00 +20°C° 0 mm 3 mps 746 mmHg 55%
    17:00 +20°C° 0 mm 2 mps 746 mmHg 60%
    18:00 +19°C° 0 mm 2 mps 745 mmHg 64%
    19:00 +18°C° 0 mm 2 mps 745 mmHg 67%
    20:00 +16°C° 0 mm 2 mps 745 mmHg 70%
    21:00 +15°C° 0 mm 2 mps 744 mmHg 73%
    22:00 +14°C° 0.1 mm 2 mps 744 mmHg 77%
    23:00 +14°C° 0.1 mm 2 mps 744 mmHg 82%

    27 June, Thursday

    Time Temperature Precipitation Wind Pressure Humidity
    00:00 +14°C° 0.1 mm 2 mps 743 mmHg 86%
    01:00 +14°C° 0.2 mm 2 mps 743 mmHg 89%
    02:00 +13°C° 0.2 mm 3 mps 743 mmHg 91%
    03:00 +12°C° 0.2 mm 3 mps 742 mmHg 94%
    04:00 +13°C° 0.1 mm 3 mps 742 mmHg 94%
    05:00 +13°C° 0.1 mm 3 mps 741 mmHg 94%
    06:00 +13°C° 0.1 mm 3 mps 741 mmHg 94%
    07:00 +14°C° 0.1 mm 2 mps 740 mmHg 92%
    08:00 +15°C° 0.1 mm 2 mps 740 mmHg 89%
    09:00 +15°C° 0.1 mm 2 mps 740 mmHg 87%
    10:00 +16°C° 0.1 mm 3 mps 739 mmHg 86%
    11:00 +16°C° 0.1 mm 3 mps 739 mmHg 85%
    12:00 +15°C° 0.1 mm 4 mps 738 mmHg 84%
    13:00 +15°C° 0.2 mm 4 mps 738 mmHg 86%
    14:00 +15°C° 0.2 mm 4 mps 737 mmHg 88%
    15:00 +15°C° 0.2 mm 4 mps 737 mmHg 89%
    16:00 +15°C° 1.7 mm 4 mps 736 mmHg 92%
    17:00 +14°C° 1.7 mm 4 mps 736 mmHg 94%
    18:00 +14°C° 1.7 mm 5 mps 735 mmHg 97%
    19:00 +14°C° 1 mm 5 mps 735 mmHg 97%
    20:00 +14°C° 1 mm 5 mps 734 mmHg 96%
    21:00 +15°C° 1 mm 6 mps 734 mmHg 96%
    22:00 +15°C° 0.5 mm 6 mps 733 mmHg 96%
    23:00 +15°C° 0.5 mm 6 mps 732 mmHg 96%

    28 June, Friday

    Time Temperature Precipitation Wind Pressure Humidity
    00:00 +15°C° 0.5 mm 6 mps 732 mmHg 95%
    01:00 +15°C° 0.3 mm 6 mps 731 mmHg 95%
    02:00 +15°C° 0.3 mm 6 mps 731 mmHg 95%
    03:00 +15°C° 0.3 mm 6 mps 730 mmHg 95%
    04:00 +15°C° 0.3 mm 6 mps 730 mmHg 94%
    05:00 +15°C° 0.3 mm 6 mps 729 mmHg 94%
    06:00 +15°C° 0.3 mm 6 mps 729 mmHg 93%
    07:00 +15°C° 0.1 mm 6 mps 728 mmHg 91%
    08:00 +15°C° 0.1 mm 7 mps 728 mmHg 90%
    09:00 +14°C° 0.1 mm 7 mps 728 mmHg 88%
    10:00 +15°C° 1.5 mm 6 mps 728 mmHg 91%
    11:00 +15°C° 1.5 mm 5 mps 728 mmHg 93%
    12:00 +15°C° 1.5 mm 4 mps 728 mmHg 96%
    13:00 +17°C° 0.3 mm 4 mps 728 mmHg 90%
    14:00 +18°C° 0.3 mm 4 mps 728 mmHg 84%
    15:00 +20°C° 0.3 mm 5 mps 728 mmHg 78%
    16:00 +19°C° 0.2 mm 4 mps 728 mmHg 79%
    17:00 +19°C° 0.2 mm 4 mps 729 mmHg 80%
    18:00 +19°C° 0.2 mm 4 mps 729 mmHg 80%
    19:00 +17°C° 0.1 mm 3 mps 729 mmHg 84%
    20:00 +16°C° 0.1 mm 3 mps 729 mmHg 88%
    21:00 +13°C° 0.1 mm 3 mps 729 mmHg 92%
    22:00 +13°C° 0 mm 3 mps 729 mmHg 92%
    23:00 +12°C° 0 mm 3 mps 729 mmHg 93%

    29 June, Saturday

    Time Temperature Precipitation Wind Pressure Humidity
    00:00 +11°C° 0 mm 3 mps 729 mmHg 94%
    01:00 +11°C° 0 mm 3 mps 729 mmHg 95%
    02:00 +10°C° 0 mm 3 mps 729 mmHg 96%
    03:00 +10°C° 0 mm 3 mps 729 mmHg 96%
    04:00 +11°C° 0 mm 3 mps 729 mmHg 95%
    05:00 +11°C° 0 mm 4 mps 730 mmHg 94%
    06:00 +12°C° 0 mm 4 mps 730 mmHg 92%
    07:00 +13°C° 0 mm 4 mps 730 mmHg 88%
    08:00 +14°C° 0 mm 4 mps 730 mmHg 85%
    09:00 +15°C° 0 mm 5 mps 730 mmHg 81%
    10:00 +17°C° 0.3 mm 4 mps 731 mmHg 77%
    11:00 +18°C° 0.3 mm 4 mps 731 mmHg 74%
    12:00 +19°C° 0.3 mm 4 mps 731 mmHg 71%
    13:00 +19°C° 0.6 mm 4 mps 731 mmHg 72%
    14:00 +19°C° 0.6 mm 4 mps 731 mmHg 73%
    15:00 +19°C° 0.6 mm 4 mps 731 mmHg 73%
    16:00 +19°C° 0.3 mm 4 mps 731 mmHg 75%
    17:00 +19°C° 0.3 mm 3 mps 731 mmHg 76%
    18:00 +18°C° 0.3 mm 3 mps 731 mmHg 78%
    19:00 +17°C° 0.2 mm 2 mps 731 mmHg 82%
    20:00 +15°C° 0.2 mm 2 mps 732 mmHg 85%
    21:00 +14°C° 0.2 mm 2 mps 732 mmHg 89%
    22:00 +14°C° 0 mm 2 mps 732 mmHg 90%
    23:00 +13°C° 0 mm 1 mps 732 mmHg 91%
    Show more